[[{"header":{"parameterUnit":"m.s-1","parameterCategory":1,"la1":30.2991,"la2":30.254,"lo1":-89.0895,"lo2":-89.0444,"dy":0.0017,"dx":0.0017,"nx":28,"ny":28,"refTime":"2025-01-30T09:00:00:Z","depth":0,"parameterNumber":2,"parameterNumberName":"U-component_of_WINDS"},"data":[0,0,0,0,0,0,0,0,0,0,0,0,0,0,0,0,0,0,0,0,0,0,0,0,0,0,0,0,0,0,0,0,0,0,0,0,0,0,0,0,0,0,0,0,0,0,0,0,0,0,0,0,0,0,0,0,0,0,-3.2426,-3.2428,0,-3.253,-3.2531,-3.2532,-3.2566,-3.2565,-3.2565,-3.2564,-3.2671,-3.2674,-3.2678,0,0,0,0,0,0,0,0,0,0,0,0,0,-3.2258,-3.2261,-3.2426,-3.2428,-3.2429,-3.253,-3.2531,-3.2533,-3.2566,-3.2565,-3.2565,-3.2564,-3.267,-3.2674,-3.2678,0,0,0,0,0,0,0,0,0,0,0,0,0,-3.2343,-3.2262,-3.2426,-3.2458,-3.2462,-3.253,-3.2531,-3.2533,-3.2566,-3.2565,-3.2565,-3.2564,-3.2669,-3.2674,-3.2678,-3.2723,0,0,-3.2694,-3.2696,0,0,0,0,0,0,0,0,-3.2339,-3.235,-3.2452,-3.2456,-3.246,-3.2534,-3.2511,-3.2597,-3.2566,-3.2526,-3.2564,-3.2564,-3.2626,-3.2635,-3.2656,-3.2728,-3.2733,-3.2694,-3.2697,-3.2699,-3.27,0,0,0,0,0,0,0,-3.2333,-3.2345,-3.2467,-3.2453,-3.2458,-3.2467,-3.2478,-3.2528,-3.2579,-3.253,-3.2532,-3.2544,-3.2628,-3.2651,-3.2658,-3.2734,-3.2694,-3.2698,-3.2701,-3.2703,-3.2848,-3.2849,0,0,0,0,0,0,-3.2321,-3.234,-3.2464,-3.2471,-3.2396,-3.247,-3.2483,-3.2511,-3.2579,-3.2588,-3.2545,-3.2545,-3.2643,-3.2653,-3.2662,-3.2718,-3.2699,-3.2704,-3.2706,-3.2847,-3.2848,-3.2849,0,0,0,0,0,0,-3.2317,-3.2332,-3.246,-3.2406,-3.2423,-3.2474,-3.2505,-3.2514,-3.2536,-3.259,-3.2599,-3.2558,-3.2643,-3.2655,-3.2707,-3.2722,-3.2706,-3.271,-3.2846,-3.2847,-3.2848,-3.283,0,0,0,0,0,0,-3.2312,-3.233,-3.2348,-3.2406,-3.2426,-3.2503,-3.2506,-3.2516,-3.2544,-3.2546,-3.2605,-3.2614,-3.2643,-3.27,-3.2712,-3.2729,-3.2714,-3.2845,-3.2846,-3.2848,-3.283,-3.2831,-3.2832,0,0,0,0,0,-3.2306,-3.2339,-3.2348,-3.2363,-3.2448,-3.2504,-3.2515,-3.2548,-3.2545,-3.2563,-3.2598,-3.2612,-3.2719,-3.2705,-3.2719,-3.2737,-3.2844,-3.2846,-3.2848,-3.2829,-3.2831,-3.2832,0,0,0,0,0,0,-3.2281,-3.2347,-3.2358,-3.241,-3.2451,-3.2509,-3.2533,-3.2548,-3.2591,-3.259,-3.263,-3.2643,-3.2692,-3.272,-3.2703,-3.2784,-3.2782,-3.2787,-3.2763,-3.2765,-3.2766,-3.2757,-3.2718,0,0,0,0,0,-3.2281,-3.232,-3.2376,-3.2417,-3.2437,-3.2481,-3.2507,-3.2528,-3.2572,-3.259,-3.2628,-3.267,-3.2713,-3.2741,-3.2784,-3.2835,-3.2848,-3.2854,-3.2855,-3.2856,-3.2859,-3.2888,-3.2891,-3.2855,-3.2855,-3.2855,0,0,-3.2282,-3.2323,-3.2346,-3.2413,-3.2447,-3.2487,-3.2495,-3.2537,-3.2567,-3.2596,-3.2647,-3.2677,-3.2727,-3.2778,-3.2803,-3.2803,-3.2872,-3.2858,-3.2858,-3.2862,-3.289,-3.2893,-3.2896,-3.2857,-3.2857,-3.2856,0,0,-3.2304,-3.234,-3.2377,-3.2411,-3.2462,-3.2492,-3.2501,-3.2557,-3.2577,-3.2629,-3.2652,-3.2688,-3.2762,-3.2796,-3.2823,-3.2859,-3.2873,-3.2872,-3.2877,-3.2904,-3.2907,-3.2909,-3.2921,-3.2925,-3.2875,-3.2875,-3.2875,0,-3.2299,-3.236,-3.2394,-3.2435,-3.2464,-3.2491,-3.2529,-3.2561,-3.2624,-3.2643,-3.2643,-3.2736,-3.2771,-3.2831,-3.2839,-3.2861,-3.2872,-3.2865,-3.2904,-3.2907,-3.291,-3.2921,-3.2926,-3.2875,-3.2875,-3.2875,-3.2875,0,-3.2351,-3.2392,-3.2416,-3.2476,-3.2507,-3.2547,-3.2587,-3.2615,-3.2634,-3.2664,-3.2716,-3.276,-3.2812,-3.2828,-3.2847,-3.289,-3.2889,-3.2896,-3.2895,-3.2912,-3.2923,-3.2928,-3.2874,-3.2874,-3.2874,-3.2874,0,0,-3.2359,-3.2437,-3.2445,-3.2472,-3.2531,-3.2564,-3.2604,-3.2655,-3.2678,-3.2721,-3.2755,-3.2817,-3.2824,-3.2854,-3.2878,-3.2902,-3.2927,-3.2906,-3.2908,-3.2907,-3.2976,-3.297,-3.2974,-3.2937,-3.2938,-3.2939,-3.2972,0,-3.2387,-3.246,-3.2492,-3.2551,-3.2589,-3.2617,-3.2652,-3.2692,-3.2721,-3.2759,-3.2791,-3.2833,-3.2839,-3.2858,-3.2883,-3.2918,-3.2941,-3.2916,-3.2969,-3.2971,-3.2955,-3.2981,-3.2974,-3.3003,-3.2976,-3.2977,-3.2978,0,-3.243,-3.2472,-3.2534,-3.2588,-3.2606,-3.2637,-3.2686,-3.2721,-3.2767,-3.2787,-3.2821,-3.2844,-3.2887,-3.2884,-3.2945,-3.2928,-3.2952,-3.2972,-3.2974,-3.298,-3.2974,-3.2985,-3.3013,-3.3016,-3.2986,-3.2985,-3.2984,0,-3.2428,-3.2501,-3.2547,-3.257,-3.2634,-3.2655,-3.2683,-3.2729,-3.2757,-3.28,-3.2818,-3.2866,-3.2892,-3.2929,-3.2963,-3.2958,-3.3021,-3.3021,-3.3038,-3.3037,-3.3049,-3.3047,-3.3079,-3.3066,-3.3066,-3.3066,-3.3066,0,-3.2457,-3.2493,-3.2547,-3.2575,-3.2617,-3.2654,-3.2695,-3.2725,-3.2765,-3.28,-3.2828,-3.286,-3.2904,-3.2942,-3.297,-3.3016,-3.3028,-3.3045,-3.3051,-3.3042,-3.3039,-3.3057,-3.3055,-3.3067,-3.3067,-3.3067,-3.3066,0,-3.2461,-3.2499,-3.2551,-3.2607,-3.2623,-3.2651,-3.27,-3.2728,-3.2759,-3.2802,-3.2815,-3.2863,-3.2909,-3.2947,-3.3008,-3.3027,-3.3074,-3.3083,-3.3058,-3.3062,-3.3076,-3.3074,-3.312,-3.3127,-3.311,-3.311,-3.311,0,-3.2476,-3.2504,-3.2564,-3.2589,-3.2616,-3.2656,-3.2685,-3.2723,-3.2752,-3.2807,-3.2829,-3.2877,-3.2917,-3.299,-3.303,-3.3077,-3.3087,-3.3099,-3.3094,-3.3083,-3.3086,-3.3083,-3.3086,-3.3099,-3.3099,-3.3099,-3.3099,0,-3.2497,-3.2515,-3.2555,-3.2601,-3.2635,-3.2674,-3.2713,-3.2732,-3.2778,-3.2809,-3.2856,-3.2887,-3.2949,-3.2997,-3.3048,-3.3077,-3.3096,-3.3101,-3.3107,-3.3097,-3.3081,-3.3089,-3.3058,-3.3099,-3.3099,-3.3099,-3.3099,-3.3099,-3.2507,-3.2533,-3.2579,-3.2623,-3.2657,-3.2693,-3.2722,-3.2756,-3.2796,-3.2849,-3.287,-3.2918,-3.2964,-3.3035,-3.3064,-3.3103,-3.3105,-3.3114,-3.3117,-3.3118,-3.3116,-3.3076,-3.3112,-3.3112,-3.3112,-3.3113,-3.3113,0,-3.2529,-3.256,-3.26,-3.2654,-3.2689,-3.2703,-3.2748,-3.2775,-3.2817,-3.2858,-3.2898,-3.2952,-3.2998,-3.3042,-3.3091,-3.3113,-3.3123,-3.3124,-3.3123,-3.3129,-3.3112,-3.3101,-3.3116,-3.3116,-3.3116,-3.3116,-3.3116,-3.3116,-3.2545,-3.259,-3.2613,-3.2675,-3.2706,-3.2753,-3.2777,-3.2811,-3.2844,-3.2903,-3.2941,-3.297,-3.3012,-3.3064,-3.3107,-3.3119,-3.3135,-3.3134,-3.3148,-3.3131,-3.313,-3.3129,-3.3119,-3.3138,-3.3138,-3.3163,-3.3163,-3.3163]},{"header":{"parameterUnit":"m.s-1","parameterCategory":1,"la1":30.2991,"la2":30.254,"lo1":-89.0895,"lo2":-89.0444,"dy":0.0017,"dx":0.0017,"nx":28,"ny":28,"refTime":"2025-01-30T09:00:00:Z","depth":0,"parameterNumber":3,"parameterNumberName":"V-component_of_WINDS"},"data":[0,0,0,0,0,0,0,0,0,0,0,0,0,0,0,0,0,0,0,0,0,0,0,0,0,0,0,0,0,0,0,0,0,0,0,0,0,0,0,0,0,0,0,0,0,0,0,0,0,0,0,0,0,0,0,0,0,0,4.6426,4.6427,0,4.6502,4.6503,4.6503,4.651,4.6509,4.6508,4.6507,4.6586,4.6588,4.6591,0,0,0,0,0,0,0,0,0,0,0,0,0,4.629,4.6293,4.6426,4.6427,4.6428,4.6502,4.6503,4.6504,4.651,4.6509,4.6508,4.6507,4.6585,4.6588,4.6592,0,0,0,0,0,0,0,0,0,0,0,0,0,4.6356,4.6294,4.6426,4.644,4.6442,4.6501,4.6503,4.6504,4.651,4.6509,4.6508,4.6506,4.6584,4.6588,4.6592,4.6643,0,0,4.6605,4.6607,0,0,0,0,0,0,0,0,4.6352,4.6361,4.6437,4.6439,4.6441,4.6495,4.6483,4.6551,4.651,4.6484,4.6507,4.6506,4.6557,4.6563,4.658,4.6647,4.665,4.6605,4.6608,4.661,4.6611,0,0,0,0,0,0,0,4.6348,4.6358,4.6456,4.6438,4.6441,4.6443,4.6451,4.6496,4.6526,4.6486,4.6487,4.6496,4.6558,4.6576,4.6582,4.6651,4.6605,4.6609,4.6612,4.6613,4.6768,4.6769,0,0,0,0,0,0,4.634,4.6354,4.6454,4.6458,4.6393,4.6447,4.6456,4.6479,4.6526,4.6532,4.6497,4.6496,4.6569,4.6577,4.6585,4.665,4.661,4.6614,4.6616,4.6766,4.6768,4.6769,0,0,0,0,0,0,4.6337,4.6349,4.6451,4.6406,4.6419,4.645,4.6477,4.6481,4.6499,4.6534,4.6539,4.651,4.6568,4.6579,4.6629,4.6653,4.6616,4.662,4.6764,4.6767,4.6769,4.678,0,0,0,0,0,0,4.6333,4.6348,4.6367,4.6407,4.6422,4.6493,4.6478,4.6484,4.6507,4.6506,4.6547,4.6553,4.6568,4.6623,4.6633,4.6658,4.6623,4.6762,4.6765,4.6768,4.6778,4.6783,4.6787,0,0,0,0,0,4.6328,4.6366,4.6368,4.638,4.6446,4.6494,4.6503,4.652,4.6508,4.6529,4.6551,4.6552,4.6648,4.6628,4.664,4.6666,4.6761,4.6764,4.6768,4.6776,4.6782,4.6787,0,0,0,0,0,0,4.6328,4.6372,4.6374,4.6425,4.6456,4.6495,4.6521,4.6525,4.6559,4.6558,4.6577,4.6586,4.6637,4.6656,4.6633,4.672,4.6704,4.671,4.6706,4.6712,4.6716,4.6711,4.6627,0,0,0,0,0,4.6334,4.6369,4.6406,4.6448,4.6463,4.649,4.6511,4.6521,4.6554,4.6567,4.6593,4.6626,4.6664,4.6688,4.6725,4.678,4.6791,4.6805,4.6809,4.6812,4.6818,4.6852,4.686,4.6781,4.6781,4.6781,0,0,4.6347,4.6375,4.6396,4.6449,4.6474,4.6511,4.65,4.654,4.6568,4.6573,4.6624,4.6644,4.6681,4.6736,4.6761,4.6754,4.6842,4.6817,4.6819,4.6823,4.6857,4.6864,4.6871,4.6783,4.6783,4.6782,0,0,4.639,4.6414,4.6454,4.6479,4.6517,4.6535,4.6544,4.6583,4.6597,4.6648,4.6654,4.6688,4.6752,4.678,4.6802,4.6858,4.6861,4.6869,4.6893,4.6926,4.6933,4.6938,4.6961,4.6969,4.6874,4.6874,4.6874,0,4.6402,4.6458,4.6473,4.6514,4.6538,4.6544,4.6586,4.661,4.6658,4.6676,4.6666,4.6749,4.6774,4.6837,4.6851,4.6868,4.6881,4.6866,4.693,4.6936,4.6942,4.6964,4.6972,4.6875,4.6875,4.6875,4.6875,0,4.6472,4.651,4.6538,4.6585,4.6612,4.6653,4.6676,4.6702,4.671,4.6729,4.6782,4.6813,4.6857,4.6872,4.688,4.6937,4.6932,4.6926,4.691,4.695,4.6972,4.698,4.6877,4.6876,4.6876,4.6876,0,0,4.6517,4.6574,4.6584,4.6607,4.665,4.6681,4.6723,4.6767,4.679,4.6823,4.686,4.6915,4.6911,4.6937,4.6948,4.6977,4.7023,4.6968,4.6969,4.698,4.7092,4.7098,4.7107,4.7025,4.7026,4.7028,4.709,0,4.6568,4.6642,4.6658,4.6723,4.6761,4.6768,4.6805,4.6837,4.6856,4.6892,4.6913,4.6953,4.6943,4.6959,4.6987,4.7011,4.7047,4.7007,4.7062,4.7064,4.7055,4.7118,4.7124,4.7181,4.7098,4.7099,4.71,0,4.6637,4.6673,4.6741,4.6783,4.6799,4.6832,4.6875,4.6908,4.6945,4.6957,4.6986,4.6995,4.7041,4.7021,4.7086,4.7059,4.7082,4.7098,4.71,4.7108,4.7086,4.7131,4.7199,4.7209,4.7113,4.7112,4.7111,0,4.6667,4.6733,4.6783,4.6802,4.685,4.6874,4.6895,4.693,4.6957,4.6994,4.7012,4.7054,4.7078,4.7111,4.7131,4.7115,4.7196,4.7177,4.721,4.7209,4.7228,4.7227,4.7305,4.7238,4.7238,4.7238,4.7238,0,4.6724,4.6766,4.6798,4.6829,4.6878,4.6897,4.6945,4.6966,4.6998,4.7035,4.7043,4.7078,4.7101,4.714,4.7156,4.7209,4.7219,4.7232,4.7236,4.7233,4.7232,4.725,4.7248,4.724,4.724,4.7239,4.7239,0,4.6767,4.6789,4.6846,4.6887,4.6899,4.6933,4.6969,4.7001,4.702,4.7067,4.7079,4.711,4.7156,4.718,4.7236,4.7248,4.7309,4.7309,4.7297,4.7299,4.7331,4.7329,4.7426,4.7441,4.7362,4.7362,4.7363,0,4.6803,4.6836,4.6882,4.6907,4.6929,4.6969,4.6997,4.7016,4.7045,4.709,4.7117,4.7164,4.7202,4.7276,4.7304,4.7349,4.7352,4.7383,4.7359,4.7356,4.7357,4.7356,4.7361,4.7388,4.7389,4.7389,4.739,0,4.6866,4.6876,4.6914,4.6957,4.699,4.7025,4.7059,4.708,4.7106,4.7137,4.7185,4.7214,4.7274,4.7321,4.7368,4.7391,4.7396,4.7397,4.7408,4.7406,4.7399,4.7407,4.7312,4.7395,4.7395,4.7394,4.7394,4.7394,4.6909,4.694,4.6978,4.7021,4.7049,4.7082,4.7115,4.7139,4.7178,4.7228,4.7237,4.7289,4.7327,4.7391,4.7416,4.7457,4.7451,4.7465,4.7469,4.7473,4.7477,4.739,4.7465,4.7465,4.7465,4.7465,4.7465,0,4.6975,4.7,4.7039,4.7088,4.7123,4.7123,4.7162,4.7192,4.7237,4.7272,4.731,4.7366,4.7412,4.7445,4.7492,4.7519,4.7523,4.7531,4.7531,4.7537,4.7478,4.7466,4.7528,4.7528,4.7528,4.7528,4.7528,4.7528,4.7014,4.7067,4.7082,4.7151,4.7175,4.7226,4.7248,4.7279,4.7308,4.737,4.7409,4.7429,4.7464,4.7515,4.7558,4.7567,4.7585,4.7594,4.7603,4.7547,4.7541,4.7535,4.7524,4.7597,4.7597,4.766,4.766,4.7661]}]]